ONEWEB-0583

operational
NORAD ID: 54650 Int'l Des: 2022-166 Owner: ONEWEBN Country: UK Constellation: oneweb
LEOCIRCULARPOLARONEWEB_TYPE

Über ONEWEB-0583

Beschreibung wird geladen...

Live-Position

3D-Globus wird geladen...

Nächste Überflüge

Höhenverlauf

Altitude vs Time

uPlot chart will show altitude changes over time

Zweizeiliger Elementsatz

1 54650U 22166J 25251.55079823 .00000098 00000-0 20677-3 0 9993
2 54650 87.9220 300.2084 0002011 91.5378 268.5986 13.21827881134322
Epoch: 8. Sept. 2025 • Age: 14 hours

Aktueller Status

Höhe 1184.0 km
Geschwindigkeit 7.26 km/s
Subsatellitenpunkt -14.46°S, 104.1°W
Startdatum 8. Dez. 2022
Alter 2.7 years
Typ internet

Technische Details

Klassifizierung Payload
Masse 148.00 kg
Trockenmasse 140.00 kg
Gesamtmasse 148.00 kg
Länge 1.30 m
Durchmesser 1.00 m
Spannweite 5.00 m
Form Trapezoid+2 pan
Hersteller ONEWUS
Bus-Typ ARROW
Phasenstatus In Orbit
Besitzer/Staat ONEWEBN/UK

Große Konstellationen

Loading constellations...